Regional Weather Roundup
Issued by NWS

Home | Current Version | Previous Version | Graphics & Text | Print | Product List | Glossary On
Versions: 1 2 3 4 5 6 7 8 9 10 11 12 13 14 15 16 17 18 19 20 21 22 23 24 25 26 27 28 29 30 31 32 33 34 35 36 37 38 39 40 41 42 43 44 45 46 47 48 49 50
441
ASUS43 KMPX 261810
RWRMN
WEATHER ROUNDUP FOR MINNESOTA
NATIONAL WEATHER SERVICE TWIN CITIES/CHANHASSEN MN
100 PM CDT THU MAY 26 2016


NOTE: "FAIR" INDICATES FEW OR NO CLOUDS BELOW 12,000 FEET WITH NO
SIGNIFICANT WEATHER AND/OR OBSTRUCTIONS TO VISIBILITY. N/A MEANS
CURRENT SKY AND/OR WEATHER CONDITIONS ARE NOT AVAILABLE.

MNZ060>063-068>070-261900-
   Twin Cities Metro

CITY           SKY/WX    TMP DP  RH WIND       PRES   REMARKS
TWIN CITIES    SUNNY     78  53  41 W12G18    29.80S
6HR MIN TEMP:  61; 6HR MAX TEMP:  78;

ST PAUL        SUNNY     77  55  46 SW13      29.80S
CRYSTAL        SUNNY     78  52  40 SW14      29.79S
BLAINE         MOSUNNY   79  57  47 W12       29.80R
EDEN PRAIRIE   SUNNY     78  54  43 SW17G23   29.81R
6HR MIN TEMP:  61; 6HR MAX TEMP:  78;

SOUTH ST PAUL  SUNNY     77  55  45 SW8       29.80S
LAKE ELMO      FAIR      75  61  60 W8        29.82R
$$
MNZ001>005-007-008-013>017-022>024-027-028-261900-
   Northwest Minnesota

CITY           SKY/WX    TMP DP  RH WIND       PRES   REMARKS
BEMIDJI        MOSUNNY   72  54  54 W9G16     29.75S
HALLOCK        CLOUDY    66  55  68 W17G24    29.69S
ROSEAU         MOSUNNY   66  59  77 SW16      29.70F
WARROAD        CLOUDY    64  57  77 SW12      29.71S
THIEF RVR FALL CLOUDY    64  54  68 SW10      29.76S
CROOKSTON      PTSUNNY   66  57  72 W13       29.75S
FOSSTON        PTSUNNY   66  57  72 SW12      29.77S
DETROIT LAKES  CLOUDY    63  55  77 W9        29.82R
MOORHEAD       MOSUNNY   64  59  82 W12       29.80R
PARK RAPIDS    MOSUNNY   73  53  49 SW12      29.78R
MAHNOMEN       MOCLDY    66  59  78 SW13      29.78S
$$
MNZ006-009>011-018-025>026-261900-
   North Central Minnesota

CITY           SKY/WX    TMP DP  RH WIND       PRES   REMARKS
BAUDETTE       CLOUDY    69  54  58 SW13G22   29.71S
FLAG ISLAND    CLOUDY    61  55  82 S12       29.69S
INTL FALLS     MOSUNNY   69  56  62 VRB7      29.74S
6HR MIN TEMP:  54; 6HR MAX TEMP:  69;

WASKISH        MOSUNNY   68  57  68 SW10      29.74F
BIG FORK       MOSUNNY   72  57  60 S3        29.75F
LONGVILLE      SUNNY     72  55  56 SW8       29.77R
GRAND RAPIDS   PTSUNNY   65  57  75 VRB5      29.79S
CRANE LAKE     CLOUDY    61  55  82 S6        29.78F
ORR            CLOUDY    63  52  67 CALM      29.75S
COOK           CLOUDY    61  55  82 SW5       29.78S
WALKER         MOCLDY    70  53  54 W12       29.76S
$$
MNZ012-019>021-037-261900-
   Northeast Minnesota

CITY           SKY/WX    TMP DP  RH WIND       PRES   REMARKS
DULUTH         CLOUDY    56  53  90 SE8       29.80F
6HR MIN TEMP:  45; 6HR MAX TEMP:  56;

ELY            CLOUDY    64  55  72 S6        29.77F
HIBBING        CLOUDY    59  55  87 CALM      29.78S
EVELETH        CLOUDY    63  55  77 SW6       29.79S
DULUTH HARBOR  CLOUDY    46  45  93 N3        29.83S
TWO HARBORS    CLOUDY    57  52  82 E5        29.79F HAZE
SILVER BAY     CLOUDY    54  54 100 E5        29.80S
GRAND MARAIS     N/A     45  44  97 E5        29.82F
G MARAIS ARPRT CLOUDY    55  52  88 E5        29.82S FOG
$$
MNZ029>031-032-039>041-046>048-054>057-064-261900-
   West Central Minnesota

CITY           SKY/WX    TMP DP  RH WIND       PRES   REMARKS
FERGUS FALLS   MOSUNNY   70  55  60 W16G22    29.78S
WHEATON        SUNNY     75  52  43 W13G23    29.83R
MORRIS         SUNNY     75  46  35 W17G29    29.81S
ALEXANDRIA     SUNNY     73  49  42 W16G23    29.83R
ELBOW LAKE     FAIR      71  51  48 NW15G25   29.82S
WADENA         MOSUNNY   68  54  60 W14       29.80R
GLENWOOD       SUNNY     73  46  38 W16G22    29.84R
APPLETON       SUNNY     79  41  25 NW16G23   29.82S
BENSON         SUNNY     77  43  29 NW12      29.82S
ORTONVILLE     SUNNY     75  45  33 NW10G17   29.83R
MADISON        SUNNY     77  45  31 W14G20    29.83S
WILLMAR        FAIR      75  50  41 W15       29.84S
$$
MNZ033>034-036-042>043-049>051-058-059-261900-
   Central Minnesota

CITY           SKY/WX    TMP DP  RH WIND       PRES   REMARKS
ST CLOUD       SUNNY     74  56  53 SW12      29.80S
6HR MIN TEMP:  59; 6HR MAX TEMP:  74;

SAUK CENTRE    FAIR      71  52  50 W15G22    29.82S
PAYNESVILLE    SUNNY     73  52  46 W10       29.83R
AITKIN         MOSUNNY   77  52  41 SW9G17    29.75S
PINE RIVER     MOSUNNY   72  55  56 SW9G16    29.81S
BRAINERD       MOSUNNY   75  54  47 W17G24    29.79R
STAPLES        SUNNY     72  52  49 W12G18    29.80R
LONG PRAIRIE   FAIR      70  54  56 SW9G18    29.82S
LITTLE FALLS   MOSUNNY   72  52  49 W9        29.80S
LITCHFIELD     SUNNY     75  54  46 W8        29.84R
BUFFALO        SUNNY     74  56  52 W10       29.83R
MAPLE LAKE     SUNNY     75  60  59 SW6       29.83R
HUTCHINSON     SUNNY     75  57  53 W9G16     29.85R
$$
MNZ037-044-045-052-053-261900-
   East Central Minnesota

CITY           SKY/WX    TMP DP  RH WIND       PRES   REMARKS
PRINCETON      SUNNY     77  57  50 SW8       29.80R
MORA           SUNNY     73  55  53 SW10G16   29.80S
CAMBRIDGE        N/A     79  59  50 SW12      29.77S
RUSH CITY      SUNNY     76  59  56 SW7       29.79R
MOOSE LAKE     MOSUNNY   64  59  82 CALM      29.77F
HINCKLEY       FAIR      75  63  64 SW10      29.78S
CLOQUET        CLOUDY    57  55  94 SE3       29.80S
MCGREGOR       MOSUNNY   72  57  60 SW5       29.77F
$$
MNZ071>073-080-081-089-090-097-098-261900-
   Southwest Minnesota

CITY           SKY/WX    TMP DP  RH WIND       PRES   REMARKS
MONTEVIDEO     SUNNY     79  46  31 N13       29.85R
GRANITE FALLS  SUNNY     81  47  30 W14G23    29.85S
CANBY          SUNNY     79  52  38 W13G20    29.86S
MARSHALL       SUNNY     76  49  38 NW10G18   29.86S
REDWOOD FALLS  SUNNY     77  47  34 VRB7      29.84R
OLIVIA         SUNNY     73  46  38 W16       29.83S
PIPESTONE      MOSUNNY   72  48  43 NW9       29.89F
WINDOM         SUNNY     75  48  38 CALM      29.88S
WORTHINGTON      N/A     72  50  45 W9        29.88F
JACKSON        SUNNY     73  48  40 NW9       29.89R
TRACY          SUNNY     77  48  35 W9        29.87S
SLAYTON        MOSUNNY   74  44  34 W9        29.90R
$$
MNZ065>067-074>077-082>085-091>093-261900-
   South Central Minnesota

CITY           SKY/WX    TMP DP  RH WIND       PRES   REMARKS
MANKATO        SUNNY     75  52  43 W10       29.86R
NEW ULM        SUNNY     73  52  46 W13       29.86R
ST JAMES       SUNNY     72  46  40 W8        29.87S
FAIRMONT       SUNNY     75  50  41 W8        29.87S
GLENCOE        SUNNY     73  59  60 W9G16     29.84R
FARIBAULT      SUNNY     75  57  53 SW8       29.85S
OWATONNA       SUNNY     75  57  53 SW9G16    29.86S
WASECA         SUNNY     73  54  49 SW13G20   29.87S
ALBERT LEA     SUNNY     73  57  56 SW6       29.87S
$$
MNZ078>079-086>088-094>096-261900-
   Southeast Minnesota

CITY           SKY/WX    TMP DP  RH WIND       PRES   REMARKS
ROCHESTER      SUNNY     74  64  71 SW14      29.86F
6HR MIN TEMP:  58; 6HR MAX TEMP:  74;

RED WING       SUNNY     79  57  47 W10       29.80S
STANTON        SUNNY     77  56  47 SW8       29.82R
DODGE CENTER   SUNNY     75  57  53 SW14      29.86S
WINONA         SUNNY     77  57  50 SW8       29.83F
AUSTIN         SUNNY     73  61  64 SW13      29.87S
PRESTON        SUNNY     74  59  60 W10G16    29.88F
$$
ABBREVIATIONS USED IN REMARKS
   TC - TEMPERATURES IN CELSIUS
  WCI - WIND CHILL INDEX
   HX - HEAT INDEX
  VSB - VISIBILITY
$$




USA.gov is the U.S. government's official web portal to all federal, state and local government web resources and services.